Wind_Speed
59 61 64 66 67 68 69 69 68 68 68 68 67 68 69 69 70 70 69 69 68 67 66 64 63 62 61 60 59 58 57 57 58 60 62 62 60 61 64 66 68 70 73 73 73 72 71 70 68 66 65 63 61 60 59 58 56 54 53 53 55 56 55 54 53 52 50 45 40 37 42 51 51 48 46 48 48 42 41 40 40 43 44 44 44 43 43 43
54 57 60 62 65 67 68 68 68 67 67 67 66 66 67 68 68 69 69 69 69 68 67 66 65 64 63 62 61 59 58 57 57 60 62 59 58 62 62 62 65 67 70 72 73 73 72 71 69 68 66 65 63 61 60 58 56 55 54 55 57 57 56 54 52 50 48 44 40 38 42 50 54 50 47 50 49 43 42 42 43 44 44 44 43 42 42 43
53 54 55 58 61 63 66 67 67 67 66 65 65 64 65 65 66 66 67 68 68 68 68 67 66 65 64 63 62 60 59 57 56 60 60 56 59 62 61 62 63 65 67 68 70 71 72 72 70 69 68 67 65 63 61 59 57 56 56 57 59 58 56 54 52 49 46 43 42 40 42 51 57 53 50 51 48 44 43 42 43 44 43 42 40 40 41 40
55 54 54 55 56 59 62 65 67 67 66 65 64 63 63 63 63 64 64 65 66 67 67 67 66 65 64 64 63 62 60 58 57 59 57 55 59 61 61 62 63 63 64 65 67 68 70 71 71 71 69 68 66 64 62 60 59 58 57 60 61 58 56 54 51 48 45 44 44 42 45 54 57 54 51 50 48 46 44 41 43 44 42 40 39 40 40 40
58 57 56 55 55 56 58 61 64 65 66 65 64 64 63 62 62 62 62 62 63 64 65 65 65 64 64 64 64 62 61 59 57 57 55 55 58 59 61 62 62 63 62 63 64 66 67 69 70 71 70 70 68 65 63 62 62 60 60 62 60 58 57 55 50 47 45 46 45 43 50 57 55 53 52 50 50 48 42 39 42 44 41 40 42 42 42 41
60 59 58 58 57 56 56 57 59 62 64 65 65 64 64 62 62 62 61 61 61 62 62 63 63 64 63 63 63 63 62 60 57 58 57 56 57 59 60 61 62 62 61 62 63 64 65 66 68 69 70 70 69 67 65 64 63 61 62 62 60 59 58 55 49 47 47 47 46 48 55 57 53 53 53 51 51 47 40 39 42 44 43 42 43 43 43 43
62 61 61 60 59 59 58 57 57 58 61 63 65 66 65 64 63 62 61 61 61 61 60 61 62 62 62 62 62 62 62 59 58 59 59 57 56 58 59 60 60 60 60 61 61 62 63 64 65 67 68 68 69 68 67 66 64 64 64 63 61 59 58 55 50 47 47 49 50 53 57 56 54 54 55 54 51 47 43 41 44 47 46 44 43 42 43 44
63 63 63 62 61 61 60 59 58 57 58 60 62 65 66 66 65 63 62 61 61 60 59 60 60 61 61 61 61 60 60 60 59 61 60 58 57 56 57 58 58 58 59 60 60 61 60 61 62 64 66 66 68 68 68 67 65 66 65 64 61 59 59 56 51 47 47 52 54 55 57 56 57 58 58 56 50 47 44 43 47 51 49 44 43 43 43 44
64 64 64 64 64 63 62 61 60 58 58 58 59 62 65 67 67 66 64 63 62 60 59 59 59 60 60 60 59 58 60 63 61 60 60 59 57 56 56 57 57 57 58 58 58 59 59 60 61 62 63 64 65 66 66 66 66 68 67 65 62 60 60 56 52 48 47 56 57 55 58 58 59 59 56 54 49 47 45 45 49 51 48 44 44 46 46 46
66 65 65 66 66 65 64 62 61 61 59 58 58 59 62 65 67 67 66 65 64 62 60 59 59 59 59 59 58 58 63 63 59 58 59 58 57 56 56 56 56 56 56 57 57 57 59 59 60 60 61 61 62 63 64 64 66 69 68 66 63 61 60 57 53 48 49 58 59 56 59 60 59 57 54 53 51 49 49 49 51 51 49 47 46 46 46 45
67 66 66 66 67 67 66 64 63 62 61 61 59 59 60 62 65 67 67 66 65 64 61 60 59 58 58 58 57 61 64 61 56 56 58 59 59 58 57 57 56 55 54 55 55 57 58 58 58 58 59 59 59 61 61 63 66 67 67 66 64 63 60 59 54 50 53 61 60 58 61 61 59 57 56 56 53 52 52 52 52 50 49 47 46 45 45 45
71 69 67 67 67 68 67 66 65 64 63 62 62 61 60 61 63 65 67 67 66 65 63 62 59 57 57 56 58 63 64 59 55 55 58 60 60 58 57 57 57 56 54 54 54 55 56 56 56 56 57 58 58 59 59 61 63 64 66 66 66 64 61 61 56 53 59 63 61 61 62 60 58 58 58 57 54 53 54 54 53 50 47 47 47 45 45 45
75 72 70 69 68 68 68 68 67 66 65 64 63 63 62 61 61 63 66 67 67 67 65 63 61 58 56 55 60 65 62 58 54 55 60 62 60 58 58 57 58 57 56 55 55 54 54 54 54 55 56 56 56 57 58 60 61 61 64 65 65 64 63 62 58 57 62 64 62 63 63 59 59 62 60 56 54 55 58 57 55 50 47 48 48 46 44 43
79 76 74 71 70 69 69 68 68 68 67 66 65 64 64 63 61 62 64 66 68 67 66 65 62 60 56 57 63 64 60 57 54 56 62 64 61 59 59 58 59 58 57 56 56 54 53 52 52 53 53 53 54 56 57 58 58 59 61 62 64 63 63 63 61 61 64 64 63 65 64 61 62 65 60 56 56 60 62 60 56 51 48 48 48 47 45 43
83 81 78 75 73 71 71 70 69 69 69 68 67 65 65 64 63 63 63 64 66 67 67 66 65 62 57 59 64 62 59 57 54 58 64 64 62 60 60 60 59 58 57 57 56 55 53 52 51 51 50 52 54 53 53 55 57 58 59 60 62 61 63 64 63 65 66 65 65 66 64 62 65 65 60 58 60 63 64 61 58 52 49 49 48 48 47 46
86 84 82 79 76 74 73 72 71 70 70 70 69 67 66 65 65 65 64 63 64 66 68 67 66 63 59 62 64 60 57 56 56 61 66 65 63 62 62 60 59 59 58 57 56 55 54 53 53 51 50 51 50 49 50 53 55 56 56 59 60 60 61 63 64 67 67 66 65 66 66 66 68 66 62 61 64 65 64 63 59 53 50 49 48 49 50 49
88 87 85 83 80 78 76 75 74 71 71 71 71 69 68 67 66 66 65 64 63 64 67 67 66 64 62 65 65 59 57 58 61 65 67 66 64 63 62 61 60 60 59 58 57 56 55 54 53 53 53 52 47 46 48 50 50 52 55 58 59 59 60 61 63 67 68 66 66 69 70 70 69 65 63 65 67 67 64 62 59 54 51 51 50 52 52 53
90 89 88 87 84 81 79 77 76 74 72 71 72 71 70 69 68 67 67 65 64 64 64 66 66 65 66 68 66 63 62 63 66 67 67 66 65 64 63 62 61 61 60 59 57 57 56 55 55 55 55 51 46 46 47 48 49 51 54 56 57 58 60 60 62 66 67 66 68 72 72 71 68 65 65 68 69 67 64 61 58 55 54 53 53 54 55 55
91 90 89 88 87 85 81 79 78 76 74 72 72 73 72 72 71 69 68 66 65 64 63 64 66 68 70 70 70 68 65 65 66 66 65 65 65 65 64 62 62 61 60 59 57 57 56 56 56 55 53 50 48 49 51 52 51 51 53 54 55 57 60 60 59 63 65 65 70 74 73 72 69 68 69 69 69 67 63 61 59 57 56 55 55 56 57 57
92 91 89 88 88 86 84 81 80 78 75 72 72 73 74 74 73 71 68 66 65 65 64 63 65 69 70 71 72 69 66 65 66 64 63 65 65 64 63 62 61 60 59 57 57 58 58 57 56 54 54 53 53 55 56 55 53 52 52 52 53 55 58 59 57 60 63 64 69 75 75 74 72 71 69 66 67 67 63 61 60 58 57 56 56 57 59 58
90 90 90 89 88 87 85 83 81 79 76 73 72 74 76 76 74 71 68 66 65 65 63 62 63 67 69 71 72 70 68 67 66 64 64 65 64 62 61 60 60 58 57 57 58 58 58 56 55 55 56 56 56 58 58 57 55 53 52 51 51 53 56 57 56 57 61 64 68 74 75 73 72 70 67 64 64 65 64 62 61 60 58 58 58 59 61 61
87 89 89 88 88 87 86 84 82 80 77 75 74 75 77 76 74 72 70 67 65 65 64 63 63 66 69 70 71 71 70 68 67 65 65 65 63 60 59 60 58 57 57 58 57 57 55 53 54 56 57 57 58 59 59 58 57 55 53 51 51 51 53 55 54 55 60 63 68 72 71 69 68 67 65 64 65 64 64 64 63 62 60 60 60 61 61 60
84 85 87 88 87 86 86 84 82 81 79 76 76 77 77 76 74 72 70 68 67 66 66 65 64 67 69 69 70 71 71 70 68 66 65 64 62 60 60 60 58 57 57 56 54 54 51 50 52 54 55 56 57 58 59 59 57 56 54 52 52 52 52 53 53 55 58 61 66 68 66 64 63 64 65 66 67 66 66 66 65 63 62 61 61 61 60 58
78 81 84 86 86 85 86 85 83 81 80 78 78 77 76 75 74 72 71 70 69 68 67 66 66 68 68 67 69 71 71 71 69 69 67 65 64 63 61 61 60 58 56 55 54 52 50 50 53 53 53 54 55 56 58 58 56 55 54 53 52 53 55 55 56 56 57 61 65 64 62 61 61 62 63 64 67 67 67 67 66 64 62 62 61 61 60 59
74 77 79 82 84 84 85 85 83 82 81 80 80 77 74 75 75 73 73 72 71 69 68 66 65 69 69 65 66 69 71 71 70 71 70 69 68 66 63 63 61 58 57 56 55 53 51 52 53 52 51 52 53 54 56 56 55 54 54 52 52 55 57 58 60 56 54 59 61 58 59 60 59 59 60 61 64 65 66 66 66 65 64 63 63 62 62 61
69 73 75 77 80 81 83 85 84 83 83 82 80 77 74 75 75 73 73 72 71 70 69 66 66 71 69 63 63 66 69 71 72 74 72 71 71 69 66 64 62 59 58 58 57 54 52 53 53 51 50 50 50 51 54 54 52 52 52 52 53 57 59 61 62 56 51 56 56 53 56 58 57 58 59 60 62 62 62 63 64 65 64 64 64 64 64 64
62 67 70 73 76 78 82 85 85 84 84 82 79 77 75 74 74 74 74 72 72 72 69 66 68 71 68 63 63 65 67 72 74 74 72 71 72 70 68 65 63 61 60 60 57 54 53 53 52 50 49 49 48 49 51 51 50 48 49 52 54 57 59 62 63 56 52 56 54 50 53 55 55 57 59 60 59 59 59 59 60 62 63 64 64 63 63 63
55 59 64 68 71 74 80 85 85 84 83 81 79 76 74 74 74 76 75 73 74 73 69 67 70 72 69 65 64 65 68 72 73 73 71 72 73 71 68 65 64 62 62 60 56 54 55 54 53 51 49 48 47 49 51 50 48 46 48 52 53 56 58 62 65 57 53 57 53 48 50 52 53 54 56 56 54 54 54 55 57 59 60 61 61 62 62 61
49 54 58 63 66 70 78 83 84 83 82 80 78 76 74 74 75 76 74 74 74 72 70 70 71 71 68 64 64 66 68 69 71 72 72 72 73 71 68 66 65 64 63 60 57 56 56 55 54 52 48 47 48 51 51 49 48 47 49 52 52 54 58 65 65 56 54 56 50 46 47 49 52 52 52 51 50 51 51 53 56 57 57 57 57 58 59 60
43 48 53 58 63 68 75 81 83 82 80 78 77 76 75 74 75 75 73 74 74 72 71 70 70 70 67 65 65 66 67 67 70 72 72 73 74 72 70 68 67 66 64 61 59 57 57 56 55 52 49 48 49 51 52 51 50 49 51 52 52 54 60 64 62 56 54 52 47 46 47 48 51 51 48 48 49 50 51 53 53 53 53 53 52 52 53 55
38 41 46 53 60 67 73 78 80 79 78 77 77 76 74 74 74 73 74 75 74 71 70 70 70 70 68 65 66 67 67 68 69 69 70 73 74 72 71 70 68 67 65 62 60 59 59 56 53 51 49 48 49 52 53 54 52 51 52 52 52 55 58 59 58 56 52 47 47 50 49 49 52 51 46 45 45 46 48 50 50 49 50 50 50 49 50 52
33 37 44 52 60 68 73 76 77 76 75 75 76 75 74 73 72 73 75 76 72 69 70 71 71 70 69 68 68 68 68 68 68 67 68 71 72 70 69 67 66 66 64 61 61 61 59 55 54 52 48 48 50 51 53 54 52 52 54 53 52 55 55 54 55 54 49 48 50 52 53 53 54 51 44 41 42 43 47 48 47 47 48 48 50 50 51 52
32 37 45 53 61 68 73 74 73 73 73 74 74 74 73 72 72 75 78 75 71 70 72 72 71 71 71 69 68 70 69 67 67 67 67 69 71 69 68 66 65 65 64 63 63 61 58 55 54 50 47 50 51 49 51 53 52 54 56 54 52 54 52 51 52 50 50 53 53 54 57 56 54 52 45 41 42 43 46 47 45 45 45 46 48 49 51 53
33 39 45 53 60 67 70 71 70 70 71 72 72 72 71 72 76 78 78 75 73 73 73 72 72 72 70 69 70 71 69 67 67 67 66 67 70 70 67 66 64 64 65 65 63 61 58 55 51 49 49 51 50 48 50 53 54 55 57 56 53 52 51 50 51 49 51 54 55 58 61 57 53 51 46 44 44 43 44 46 45 45 45 46 47 48 49 51
33 38 44 50 58 64 67 68 68 68 69 70 70 70 72 76 79 78 76 75 74 73 72 72 72 72 70 70 71 71 68 68 68 67 65 66 69 69 67 64 63 64 64 62 61 60 57 55 53 53 54 52 50 48 49 53 54 55 58 58 53 51 51 52 52 51 51 54 56 59 59 56 53 51 48 47 45 43 45 46 47 47 47 47 48 49 49 50
31 36 42 48 55 60 64 66 66 67 67 68 69 72 76 79 78 76 74 73 71 69 69 69 70 70 70 70 71 70 69 69 69 67 64 65 70 71 68 66 63 62 62 60 61 60 57 56 56 55 54 52 48 48 50 53 55 55 56 56 51 52 55 54 54 53 52 53 54 56 56 55 54 52 51 48 46 46 48 48 50 51 50 49 49 50 50 50
28 33 39 46 52 57 61 64 65 66 67 69 71 74 76 74 72 70 69 68 66 66 67 67 67 68 68 69 70 69 69 69 69 67 64 65 70 71 69 67 65 63 62 62 62 61 58 59 59 56 54 52 49 50 51 53 54 53 53 54 54 56 57 54 53 53 51 52 53 54 54 54 55 55 52 49 48 50 50 50 51 51 51 51 50 50 50 51
27 32 38 44 50 56 60 63 65 66 67 69 70 71 70 68 67 67 66 64 63 63 64 65 65 66 67 68 69 70 70 70 69 66 64 66 70 71 70 68 66 64 64 64 63 63 61 60 60 57 55 54 53 53 51 49 49 49 52 56 57 57 55 53 53 51 50 51 51 51 52 54 55 55 52 51 51 52 51 51 52 51 51 50 49 50 50 51
27 33 38 44 50 56 60 63 65 66 67 67 67 67 66 66 65 64 63 62 61 61 61 61 62 63 65 67 69 70 71 70 69 67 65 66 70 73 72 70 67 65 65 65 64 63 61 60 60 58 57 58 55 52 48 47 49 49 52 55 56 54 54 54 52 50 49 50 50 51 52 53 53 54 53 53 53 52 52 52 53 53 53 52 51 51 52 53
28 33 39 44 50 55 59 62 64 66 66 66 66 65 64 62 61 60 60 59 59 59 60 60 61 62 64 67 69 70 70 70 69 69 68 69 72 73 73 70 67 66 65 65 64 63 62 61 60 60 59 58 53 48 48 50 51 50 52 54 54 53 53 53 52 50 48 49 50 51 51 53 53 53 54 54 53 53 53 53 53 54 54 53 53 53 53 53
29 34 39 45 50 54 58 61 63 63 63 63 63 61 60 59 58 58 57 57 57 58 59 59 58 60 63 67 68 68 69 69 69 70 69 70 73 73 72 69 67 67 68 67 65 63 62 61 62 62 59 55 51 49 51 53 53 51 53 55 55 53 52 52 50 48 47 48 49 49 50 53 54 54 54 53 52 52 52 53 55 56 56 55 54 54 54 53
30 34 39 44 49 53 57 59 60 60 60 59 58 57 56 54 54 54 54 55 56 56 56 57 57 58 62 64 64 65 67 66 67 68 69 70 72 72 71 70 69 70 69 67 65 64 63 63 64 63 58 54 53 52 52 54 54 54 55 56 54 52 50 49 48 48 48 49 50 51 51 51 53 54 51 49 49 50 51 53 55 56 55 54 53 53 53 52
30 34 38 42 46 50 53 56 56 57 56 55 54 53 52 51 50 51 51 53 54 53 54 55 55 56 58 60 60 62 64 64 65 66 67 70 71 72 72 72 71 71 69 67 67 66 65 65 65 62 58 57 57 56 54 55 56 56 56 54 51 50 49 49 49 51 52 53 54 54 51 48 49 49 46 45 48 50 52 54 56 56 54 52 51 51 51 51
29 32 36 40 44 47 49 51 51 51 50 49 49 48 48 48 49 49 49 50 50 50 51 52 51 52 55 57 58 59 61 61 62 64 67 69 71 72 72 72 72 72 70 68 68 67 65 66 65 63 61 61 59 56 55 56 57 57 57 55 51 50 51 51 51 53 54 55 56 54 50 46 45 45 45 46 49 51 52 53 53 54 53 50 50 50 50 50
28 30 33 37 41 43 45 46 46 46 46 46 46 45 45 46 46 46 46 46 46 47 47 46 47 48 50 51 51 53 55 56 58 61 64 68 71 72 73 72 72 72 70 70 71 69 68 67 67 64 62 60 58 57 57 59 60 59 59 57 54 52 53 53 53 55 55 55 56 54 50 45 42 43 46 49 51 52 53 52 52 52 51 49 49 49 49 49
29 29 31 34 37 38 40 41 42 42 42 42 42 42 42 42 42 41 42 42 42 42 41 40 42 44 46 46 48 50 52 53 55 58 62 66 69 70 70 70 71 72 72 73 73 70 68 67 65 63 61 59 60 61 62 63 63 61 59 58 57 55 55 55 55 57 57 56 56 53 48 44 41 42 46 50 52 53 54 54 54 53 51 49 48 48 49 50
29 30 29 31 33 34 36 37 37 37 37 37 38 38 39 38 38 37 38 38 38 38 38 38 39 42 44 46 47 49 51 52 54 57 60 64 66 67 68 69 71 72 73 73 71 68 66 64 62 60 60 60 61 62 63 61 60 60 59 59 59 57 56 57 57 59 58 55 53 50 46 44 43 43 45 48 50 52 52 53 53 52 51 49 49 49 51 53
30 31 30 30 31 32 32 32 33 33 33 34 35 35 37 37 36 35 35 36 36 36 37 38 38 39 42 44 47 49 52 53 54 56 58 60 62 64 67 68 70 71 71 69 67 65 64 62 60 60 60 61 61 61 61 60 58 59 60 60 60 58 57 58 60 60 57 53 51 49 46 46 46 46 47 48 49 50 51 51 52 52 52 52 51 51 52 54
28 29 30 30 30 31 30 30 30 31 31 33 33 34 35 35 34 33 33 34 34 34 35 37 38 39 40 43 45 47 50 51 52 54 56 58 60 62 64 66 67 69 68 66 64 63 63 62 61 61 62 62 61 61 60 59 58 59 60 61 61 59 58 59 59 57 54 52 50 49 48 48 48 48 49 50 51 52 53 53 54 54 54 53 52 52 53 55
26 28 28 28 28 29 29 29 28 29 29 31 32 31 31 31 31 31 32 32 32 33 33 33 34 36 38 40 42 43 45 47 49 51 52 54 57 60 62 63 64 65 65 64 64 63 62 62 62 63 63 61 61 60 59 59 58 59 60 60 61 60 58 58 57 54 53 52 51 49 49 49 49 50 52 52 53 54 55 55 56 56 56 55 55 55 56 57
24 26 27 27 27 27 28 28 28 28 28 29 29 29 29 29 29 29 30 31 31 32 32 32 32 33 36 37 39 41 43 45 47 49 50 51 54 56 58 59 61 62 63 62 62 61 62 63 62 61 61 61 61 59 59 59 58 58 59 60 60 59 57 56 55 53 53 54 53 51 50 50 50 52 53 54 54 55 56 56 56 57 58 59 60 60 61 61
22 23 24 26 27 27 27 28 28 28 28 28 28 29 29 29 29 28 28 29 30 30 31 32 33 33 34 35 36 38 40 42 45 47 48 50 52 53 54 56 59 60 59 59 57 58 61 61 59 59 60 60 59 57 58 58 58 58 58 58 58 58 56 55 55 55 55 54 54 53 52 51 51 52 53 54 54 54 54 54 55 56 57 59 61 62 62 62
Wind_Direction
251 250 250 249 250 250 250 250 249 249 249 248 247 246 245 245 245 245 245 245 246 246 245 244 243 241 239 239 240 242 243 244 245 244 244 243 242 241 240 240 239 239 238 238 238 237 238 238 238 238 239 239 240 240 241 241 241 241 241 241 242 242 242 242 243 244 245 244 242 239 243 249 250 247 247 249 247 244 245 245 244 245 247 248 249 251 252 254
252 251 250 249 248 248 248 248 248 248 248 247 247 246 245 245 244 244 244 244 244 245 245 244 243 242 240 239 239 240 241 242 243 244 243 243 243 242 241 241 240 239 239 238 238 237 237 237 238 238 238 239 239 240 241 241 241 240 241 241 242 242 242 242 243 244 245 243 241 238 240 247 249 246 244 245 245 242 242 243 243 244 247 249 250 252 253 254
253 251 250 249 248 247 247 247 247 246 246 246 245 245 244 244 244 243 243 243 243 243 243 243 243 242 241 239 238 238 239 240 241 242 243 243 243 243 242 241 240 239 238 238 238 238 238 237 237 237 237 238 238 239 240 240 240 240 240 241 242 241 242 242 242 243 244 244 241 237 239 245 247 245 242 244 245 242 241 243 244 245 246 249 251 251 251 251
255 253 251 249 248 247 246 246 245 245 245 245 244 243 243 242 242 242 242 242 242 242 242 242 242 241 240 240 239 238 238 238 239 242 243 243 242 242 241 241 240 240 239 238 238 238 238 237 237 237 237 237 237 238 239 239 239 239 239 241 241 241 242 242 242 243 244 243 241 238 240 243 245 246 244 244 246 243 241 243 246 247 246 247 248 248 249 251
256 254 252 250 248 247 246 245 245 244 244 243 243 242 241 240 240 240 241 241 241 241 240 240 241 240 240 239 239 238 237 237 238 241 242 241 241 241 241 240 240 240 239 239 238 238 237 237 237 237 236 236 236 237 237 238 239 238 239 240 241 241 242 241 241 242 243 243 243 240 241 243 244 247 247 245 246 244 242 245 249 250 247 246 246 248 249 252
255 254 253 251 249 248 246 245 244 244 243 243 242 242 241 240 239 239 239 240 240 240 239 239 239 240 239 238 238 238 238 236 237 240 239 238 239 240 240 240 240 240 239 239 239 238 237 237 237 237 237 236 236 236 236 237 238 238 239 240 241 241 242 241 239 240 242 242 242 241 242 244 244 247 249 247 246 247 244 244 249 250 246 244 245 247 250 252
253 253 252 251 250 248 247 245 244 243 242 242 242 241 241 240 239 238 238 239 239 239 239 239 238 238 239 238 238 238 238 237 237 239 238 237 238 239 240 241 241 241 240 240 239 239 238 238 238 237 237 237 236 235 235 236 237 238 239 239 240 241 242 241 238 238 241 242 240 241 242 243 243 243 246 246 245 245 243 241 245 247 245 243 244 248 250 252
253 252 251 250 249 249 248 246 244 243 242 241 241 241 240 240 239 238 237 237 238 239 239 239 238 238 238 237 237 237 238 237 236 238 237 236 237 238 240 241 241 241 240 240 240 240 239 239 238 238 237 237 236 236 235 235 236 238 238 239 239 241 241 240 238 236 240 243 241 242 243 243 243 242 243 245 245 245 243 242 244 246 246 245 247 250 250 251
253 252 251 249 248 247 247 246 245 244 242 241 240 240 240 239 238 238 237 237 237 237 238 238 237 237 237 237 237 236 238 237 236 238 239 237 237 238 239 240 239 239 239 240 240 240 239 239 238 238 238 237 237 237 236 236 236 237 238 238 238 240 241 240 238 235 237 243 242 242 244 244 244 244 246 248 248 248 247 246 247 249 249 248 248 250 250 253
253 251 250 250 248 247 246 246 245 244 243 242 240 239 239 239 238 237 237 237 236 236 236 237 237 237 236 236 236 235 237 236 235 239 241 239 238 238 239 239 238 238 238 239 239 239 239 238 238 238 238 238 238 238 237 236 236 237 238 238 238 238 240 240 237 234 236 242 242 240 243 244 244 245 246 247 247 246 245 244 246 248 249 248 248 250 252 255
253 251 250 249 248 247 246 245 244 244 243 242 240 239 239 238 238 237 236 236 236 235 235 236 236 236 236 235 235 235 236 235 234 238 241 241 239 238 239 239 239 238 237 238 238 238 238 239 239 239 239 238 238 237 237 237 237 238 238 237 237 236 238 239 236 232 234 240 241 240 243 244 245 245 245 246 245 244 244 244 244 247 250 251 251 252 254 255
253 251 249 248 247 247 246 245 244 243 242 241 240 239 239 238 238 237 235 235 235 235 234 234 235 235 235 234 234 235 236 234 232 236 240 241 240 239 240 240 239 238 237 237 237 237 238 238 239 239 238 238 238 238 237 237 237 238 238 238 237 236 236 238 235 232 234 238 240 241 242 244 246 246 244 245 245 246 247 245 245 245 248 252 252 252 253 254
251 250 248 247 246 246 245 245 244 243 242 241 240 239 238 238 238 237 236 234 234 234 234 233 233 234 234 234 233 234 234 233 231 233 238 239 238 238 239 240 240 238 237 238 238 237 237 237 238 238 238 238 238 238 237 237 237 238 239 239 238 237 236 237 235 233 235 237 239 240 241 242 244 245 244 244 246 248 248 246 244 244 246 249 252 252 252 253
249 248 247 246 245 244 244 244 243 243 242 241 240 239 238 237 237 237 236 234 233 233 234 233 232 232 232 233 233 234 234 232 230 231 236 238 238 238 239 240 241 240 239 239 239 238 238 237 237 238 238 238 238 237 237 238 238 238 239 239 239 238 236 236 234 233 235 236 238 240 241 241 243 245 244 244 245 247 247 246 245 244 244 247 250 252 251 252
247 246 245 244 243 243 243 243 243 242 241 241 240 240 239 237 236 237 236 235 233 232 233 233 232 231 230 233 234 234 233 231 229 230 234 236 237 238 239 240 241 242 241 241 241 241 240 239 239 238 237 237 237 237 238 239 239 238 238 239 239 238 237 236 234 234 235 236 237 240 241 241 243 245 245 244 244 246 247 247 246 245 245 247 249 251 252 252
245 245 244 243 242 241 241 241 242 241 241 240 239 239 239 238 236 236 236 235 234 232 232 232 232 231 230 233 235 233 232 231 228 230 233 235 236 237 238 239 241 242 242 242 243 243 243 242 241 239 238 237 237 237 238 238 239 239 239 239 239 238 237 236 235 235 235 235 237 240 240 240 241 243 243 244 244 245 247 248 248 247 247 248 249 251 252 253
243 243 243 242 241 240 240 240 240 240 239 239 238 238 238 238 237 236 235 235 234 233 232 231 231 230 229 231 233 232 230 228 227 228 231 233 235 236 238 239 240 241 242 242 243 244 244 244 244 243 241 239 236 237 238 239 239 239 238 238 238 237 237 236 235 236 236 235 237 239 239 239 240 242 243 244 245 245 246 249 250 249 248 249 250 251 253 253
241 241 241 241 240 239 238 238 238 238 238 238 237 237 237 237 237 236 235 234 233 233 232 231 230 230 229 230 231 230 227 226 226 227 228 231 233 235 236 237 238 239 240 241 242 243 244 245 245 245 245 242 240 240 241 240 238 237 237 237 237 237 236 235 235 237 237 235 237 239 240 240 241 241 242 244 245 246 246 249 250 251 250 250 251 252 253 253
241 240 239 239 239 238 237 236 236 236 237 237 236 235 235 236 236 236 235 233 232 232 232 230 229 228 228 229 229 228 227 228 229 228 229 231 232 234 235 236 237 238 239 239 241 242 243 244 245 247 248 247 245 244 243 241 238 236 237 237 237 237 237 235 234 237 238 236 237 240 240 241 240 240 240 243 246 247 247 249 250 251 251 251 251 252 253 254
241 239 238 237 237 237 235 234 234 234 234 235 235 234 234 234 234 235 235 234 233 232 232 231 230 230 229 230 231 230 228 229 230 231 230 232 233 234 235 236 237 237 238 239 240 241 241 243 244 246 247 247 246 246 245 244 241 238 238 238 237 237 238 237 234 236 239 237 238 240 240 240 240 241 241 243 248 251 250 250 251 250 250 251 251 251 252 253
241 240 238 236 235 235 234 232 232 232 232 233 234 234 232 232 233 234 235 235 233 232 232 231 232 232 231 231 232 231 230 229 230 231 231 232 233 234 235 236 237 237 238 238 239 240 241 242 244 245 245 245 245 246 246 246 244 242 240 239 238 238 239 239 235 235 238 238 238 239 240 241 242 243 244 245 247 251 252 251 250 250 250 250 250 251 252 253
240 239 238 236 234 233 232 231 231 231 231 231 232 233 232 231 231 232 232 233 233 232 231 230 231 231 231 230 231 231 231 230 230 231 232 233 234 234 235 236 237 237 237 238 239 240 241 242 243 243 243 243 244 245 246 247 247 245 243 242 241 241 241 240 236 234 237 239 239 240 241 242 243 245 245 245 245 248 250 251 250 250 250 250 251 252 253 255
239 237 236 235 233 231 230 230 229 230 230 230 231 232 231 230 230 230 231 232 232 232 230 228 229 231 230 229 229 230 230 230 230 230 232 234 235 235 235 236 236 236 237 238 238 239 239 240 241 241 241 242 242 243 244 245 246 247 246 245 244 243 243 242 237 233 234 238 240 241 242 243 244 244 244 244 244 245 247 250 251 251 251 252 252 254 255 256
237 236 234 233 232 230 229 228 227 228 229 229 229 230 230 229 229 228 229 230 231 232 231 228 228 231 230 228 228 229 230 229 229 229 230 231 233 234 234 234 234 234 235 236 237 237 236 237 238 239 239 240 240 241 243 244 245 246 246 246 246 246 244 242 238 233 232 236 240 242 244 244 244 244 245 245 245 245 247 249 251 252 253 253 254 255 255 256
235 233 232 230 229 228 227 227 226 226 227 228 228 229 229 229 228 227 227 228 229 230 231 229 228 231 231 228 228 230 230 229 229 229 228 229 230 231 232 233 233 233 234 235 235 235 235 236 238 239 240 241 241 242 243 243 243 244 245 245 245 245 245 244 241 235 232 237 241 243 245 245 244 244 244 245 245 246 246 248 250 251 252 253 254 254 255 255
233 231 230 228 227 226 225 225 225 224 226 227 227 227 227 227 227 226 226 227 228 230 230 229 228 231 231 228 228 229 230 230 229 229 228 228 230 230 230 231 232 232 233 234 234 234 235 237 239 240 240 241 241 242 244 244 243 244 244 244 243 244 246 246 244 238 233 237 239 240 243 244 243 243 243 243 244 245 246 247 248 250 251 252 253 254 255 256
232 230 227 225 224 223 222 224 224 223 224 225 226 226 226 226 225 225 225 225 227 229 229 228 229 231 230 228 227 228 228 229 229 229 229 229 230 231 230 231 232 232 233 234 234 234 236 237 239 240 240 241 241 242 243 243 243 243 243 242 241 243 246 248 248 242 236 237 236 235 240 242 242 243 244 243 244 246 247 248 249 250 250 251 252 253 255 256
230 229 226 223 221 219 219 222 223 222 223 224 225 225 225 224 224 224 224 224 225 227 227 227 229 230 229 227 227 227 228 228 228 227 227 228 230 230 230 232 233 234 234 235 235 234 235 237 239 240 240 241 240 240 241 242 241 240 241 240 240 242 244 246 248 244 239 239 236 232 237 242 243 243 245 245 246 247 248 249 250 250 251 251 251 252 254 256
226 224 222 220 218 215 215 219 221 221 221 222 223 223 224 223 223 223 223 223 225 226 227 227 229 230 229 227 227 228 229 229 228 227 226 227 228 229 229 230 232 233 234 235 234 234 235 235 237 239 239 239 238 237 238 239 239 238 238 239 239 240 241 244 247 246 242 242 240 237 237 241 242 241 243 246 245 245 245 246 247 248 249 251 252 252 253 255
224 221 218 216 214 212 213 215 218 219 219 220 221 222 222 222 222 222 222 223 224 225 226 227 229 230 229 227 227 228 229 230 229 227 225 226 227 227 227 227 229 231 232 233 234 234 235 235 236 238 238 237 236 236 236 236 236 236 237 239 239 239 240 244 248 249 246 245 246 243 240 241 242 239 239 243 244 245 246 246 247 248 249 252 253 253 253 255
221 217 213 211 209 209 211 213 215 216 216 217 219 220 220 220 220 220 222 222 223 224 225 227 228 229 228 227 227 228 228 229 229 227 225 226 227 227 227 227 228 230 231 232 233 234 234 235 236 238 239 238 237 236 235 235 236 237 239 240 241 241 243 246 250 252 251 250 250 248 245 243 244 240 236 240 245 247 248 247 247 248 248 250 251 250 252 254
216 211 207 205 205 206 208 211 212 213 213 215 217 218 219 219 218 219 221 222 221 222 224 226 227 227 227 225 226 227 227 227 228 227 224 225 227 227 228 229 229 231 232 233 234 234 234 235 235 237 238 238 237 236 236 236 236 239 241 241 243 245 247 249 251 254 255 252 249 249 247 245 245 242 234 236 242 245 247 247 246 246 247 248 249 249 250 252
207 204 203 201 201 202 205 208 209 210 210 212 214 216 216 216 217 218 220 220 219 221 223 224 225 226 225 225 225 227 227 227 227 226 223 223 225 225 225 227 228 230 231 232 233 234 234 235 236 238 238 239 239 237 237 238 237 240 243 243 244 248 250 251 253 254 253 251 248 246 245 244 246 245 237 234 239 242 246 249 248 246 247 247 248 248 249 250
202 199 200 200 198 200 202 205 206 207 208 210 212 213 214 214 216 218 219 218 218 219 221 223 224 225 224 224 225 226 227 227 228 227 223 221 223 224 223 225 226 228 229 230 231 233 233 234 235 238 238 238 240 238 237 238 236 238 242 242 242 246 249 250 251 250 249 249 247 245 245 246 248 249 244 238 237 240 244 248 249 247 245 245 246 247 248 249
201 197 197 197 197 198 200 201 203 205 206 208 209 211 212 214 216 217 218 218 218 218 220 221 223 224 223 224 225 226 226 227 227 227 224 221 222 223 222 224 226 228 230 231 232 233 233 234 233 234 236 235 237 238 236 237 237 237 241 242 242 245 247 248 249 248 248 248 248 247 248 249 249 249 247 243 240 240 241 244 247 247 244 243 243 244 247 249
200 196 194 195 195 196 197 199 200 202 204 206 207 209 211 214 216 217 218 218 218 219 221 222 223 224 224 224 226 227 227 228 228 226 223 220 221 222 221 221 224 227 229 231 232 233 233 234 233 233 237 237 236 237 237 237 236 236 240 243 243 244 244 245 248 248 248 249 249 249 250 250 250 248 247 247 246 245 243 242 244 246 245 242 242 245 248 251
196 194 191 191 192 193 194 196 198 200 202 204 206 209 212 214 216 218 220 220 220 220 221 222 223 224 225 226 227 228 228 229 229 227 224 220 219 221 221 221 222 224 227 228 230 231 230 232 233 232 235 236 235 236 237 238 238 237 240 242 241 241 242 244 247 249 251 252 252 252 251 250 250 249 248 247 246 246 246 246 246 247 247 246 246 249 251 253
189 188 187 187 188 189 192 194 196 199 202 204 207 210 213 215 217 218 220 222 222 222 222 223 223 224 226 227 228 230 229 229 229 227 224 221 219 219 220 221 222 224 227 228 229 230 230 231 233 232 232 233 232 233 235 240 243 240 239 242 242 243 245 246 248 250 253 255 255 254 253 251 249 250 249 247 246 246 248 249 250 250 250 249 250 252 253 254
182 182 182 183 184 186 189 192 195 198 201 204 207 210 212 214 216 218 220 221 222 223 224 224 225 226 227 229 230 231 231 230 229 226 223 221 219 218 218 219 222 224 227 229 230 231 231 232 234 233 233 233 233 233 235 238 241 239 238 241 243 245 246 247 248 249 251 254 255 254 252 251 249 249 248 247 247 247 248 249 251 252 252 252 252 253 254 255
175 177 177 179 182 184 187 191 194 197 200 204 207 209 212 214 216 218 220 222 223 224 224 225 225 226 228 230 230 231 231 230 227 224 221 218 217 218 217 218 220 223 226 229 230 231 232 233 235 235 234 234 234 235 237 238 239 240 240 240 242 244 246 247 248 249 250 252 253 253 251 250 248 246 245 246 247 248 248 249 250 251 252 254 255 255 257 258
169 172 174 176 179 182 186 190 194 198 201 204 207 209 212 214 216 218 220 223 225 226 227 227 226 226 228 230 230 229 229 228 225 222 219 216 215 216 216 217 220 223 225 227 229 230 232 233 235 235 235 234 234 234 236 239 240 241 242 241 240 241 244 246 248 249 251 252 252 252 250 248 248 246 245 245 247 249 250 251 251 251 253 255 257 258 260 261
163 168 171 174 177 181 185 190 194 198 201 204 207 210 212 215 217 219 221 224 226 227 229 229 227 226 227 228 228 227 227 225 222 220 217 214 213 214 215 215 218 222 225 226 228 230 231 233 234 235 235 235 234 233 235 239 241 241 242 242 241 241 243 247 249 249 250 250 249 248 247 246 247 247 247 247 249 250 251 251 252 253 254 255 257 258 260 261
158 164 168 172 175 180 185 189 193 197 201 204 207 210 213 216 219 221 223 225 227 227 228 228 226 224 224 224 223 223 223 222 219 217 214 212 211 213 215 215 217 221 223 225 228 229 230 233 235 236 236 235 235 233 234 237 240 242 243 244 243 242 243 244 246 247 248 248 248 249 248 247 246 248 248 249 249 249 249 251 252 253 254 256 258 259 260 261
154 161 166 169 174 178 183 189 193 197 201 204 208 211 213 216 219 222 223 225 226 226 226 225 223 221 221 221 220 219 219 218 216 213 211 210 210 211 214 216 217 220 223 225 227 229 230 233 235 236 235 236 236 235 236 239 242 244 245 245 243 241 241 241 243 246 249 251 252 253 252 251 248 247 245 246 248 249 249 252 254 256 257 259 260 260 260 261
150 158 164 167 172 177 181 186 191 196 200 204 207 211 214 216 218 219 221 222 222 222 222 222 219 217 218 219 219 218 218 216 215 213 210 209 210 211 213 216 218 221 223 225 227 228 230 232 234 236 236 238 239 238 237 239 241 242 243 244 242 241 241 242 243 246 249 251 254 255 255 255 254 250 245 244 247 250 252 254 256 259 261 261 262 262 262 263
147 154 161 165 169 174 178 182 187 192 197 201 204 207 210 213 214 215 216 216 216 216 216 215 214 212 211 214 214 215 215 213 213 213 211 210 211 212 214 217 219 221 223 226 227 229 230 233 235 237 237 237 237 237 236 235 237 239 240 241 240 239 240 241 242 245 248 250 253 255 257 257 255 252 248 247 248 251 253 256 258 260 262 262 263 264 265 265
146 150 157 162 165 170 174 178 182 187 191 195 199 202 203 205 206 207 208 208 208 208 206 205 206 207 206 207 207 209 211 211 210 211 212 212 212 213 214 217 220 223 225 227 228 230 232 233 236 237 238 237 236 236 236 235 236 238 238 239 239 238 239 241 242 244 247 250 254 257 258 257 253 248 246 247 249 251 254 256 259 260 262 262 263 264 266 266
146 149 153 158 162 165 170 174 177 181 185 189 192 196 197 196 196 197 199 199 198 200 200 197 197 201 203 204 203 204 207 209 209 209 211 213 214 215 216 218 221 224 226 228 229 231 233 234 235 236 237 237 237 237 238 235 234 236 236 237 238 238 239 241 243 245 248 252 255 257 257 256 254 249 245 245 248 251 253 256 258 260 262 263 264 263 264 265
148 150 153 157 160 162 165 169 173 176 180 182 184 188 190 189 188 189 191 192 192 193 195 195 194 195 199 203 204 204 205 208 209 209 210 211 213 216 218 220 222 225 227 228 229 231 233 233 234 235 236 237 237 238 239 237 235 234 235 236 238 238 239 241 245 248 251 254 255 256 256 256 256 253 249 247 248 250 252 254 256 257 260 262 262 261 261 263
150 151 153 157 159 160 160 163 166 169 173 177 178 180 183 182 183 185 185 186 187 188 190 192 193 194 197 201 203 205 206 208 210 211 212 213 214 216 218 220 223 225 227 227 228 230 232 233 234 235 237 238 239 240 240 239 237 235 235 237 238 239 240 243 246 249 252 254 254 254 255 256 256 254 251 248 248 249 251 252 254 255 257 259 260 260 261 263
153 154 155 157 158 158 158 158 160 163 167 171 174 175 176 176 178 181 183 183 185 186 186 186 189 192 195 198 201 204 206 208 211 212 213 215 217 218 219 221 222 225 226 227 227 229 232 234 235 236 238 239 239 240 240 240 238 236 235 235 237 239 240 243 247 249 251 252 253 252 251 252 252 251 250 249 249 250 252 254 255 256 257 258 259 261 262 264
156 158 159 159 158 159 159 158 159 161 164 168 171 172 173 175 177 179 181 182 183 184 185 185 186 190 193 195 199 203 205 207 212 214 214 215 217 219 221 223 224 225 226 227 227 229 232 233 235 236 238 239 239 239 239 239 237 236 235 235 237 239 241 243 246 248 249 251 252 251 249 249 250 250 250 250 249 250 252 254 256 257 258 259 260 262 263 265
Height
10602 10603 10605 10606 10608 10610 10612 10615 10618 10621 10624 10627 10630 10633 10636 10638 10641 10644 10647 10650 10652 10655 10658 10662 10665 10668 10672 10674 10677 10680 10684 10687 10690 10693 10692 10696 10703 10704 10705 10708 10713 10717 10719 10723 10727 10731 10735 10739 10742 10746 10750 10753 10756 10759 10762 10766 10770 10775 10778 10779 10778 10777 10781 10784 10789 10794 10799 10808 10813 10816 10813 10805 10804 10811 10815 10813 10815 10825 10830 10833 10833 10831 10832 10832 10836 10838 10838 10840
10594 10595 10597 10598 10600 10601 10603 10606 10609 10612 10615 10619 10622 10625 10628 10630 10633 10636 10639 10642 10645 10647 10650 10654 10658 10662 10665 10668 10671 10675 10678 10682 10686 10685 10684 10693 10699 10697 10700 10704 10706 10709 10712 10716 10720 10724 10729 10732 10737 10740 10744 10747 10750 10755 10757 10761 10766 10770 10772 10772 10770 10771 10776 10781 10787 10792 10797 10805 10808 10811 10809 10801 10797 10804 10810 10806 10810 10822 10826 10827 10827 10827 10828 10829 10832 10834 10835 10836
10587 10588 10589 10590 10592 10593 10595 10597 10600 10604 10607 10610 10614 10617 10620 10623 10625 10628 10631 10634 10637 10640 10643 10647 10650 10654 10658 10661 10665 10669 10672 10677 10680 10677 10681 10692 10692 10690 10695 10697 10699 10702 10706 10710 10714 10719 10722 10726 10731 10734 10738 10741 10745 10750 10752 10757 10761 10764 10766 10765 10762 10767 10773 10778 10785 10790 10795 10800 10802 10805 10804 10795 10791 10797 10803 10802 10808 10818 10821 10823 10822 10823 10825 10827 10829 10830 10831 10831
10579 10580 10581 10582 10584 10585 10587 10588 10592 10595 10599 10602 10606 10609 10612 10615 10617 10620 10623 10626 10629 10632 10636 10639 10643 10647 10650 10655 10659 10662 10667 10671 10673 10672 10680 10687 10684 10685 10689 10690 10693 10696 10700 10704 10708 10713 10716 10720 10724 10726 10731 10735 10740 10745 10748 10752 10754 10758 10760 10756 10757 10765 10770 10775 10782 10788 10792 10794 10795 10800 10796 10788 10788 10793 10798 10802 10805 10811 10817 10820 10817 10818 10822 10824 10825 10826 10826 10827
10572 10573 10573 10575 10576 10577 10579 10581 10584 10587 10591 10594 10597 10601 10604 10607 10610 10613 10615 10619 10622 10625 10628 10632 10636 10639 10643 10648 10652 10656 10661 10665 10669 10669 10675 10679 10678 10680 10682 10684 10688 10691 10696 10699 10702 10706 10709 10713 10716 10720 10725 10729 10734 10740 10743 10745 10747 10753 10753 10750 10755 10761 10765 10772 10781 10786 10787 10788 10791 10794 10787 10782 10789 10791 10793 10799 10800 10805 10816 10819 10813 10813 10818 10821 10820 10821 10823 10824
10564 10565 10566 10567 10568 10569 10571 10573 10576 10579 10583 10586 10589 10592 10596 10599 10602 10605 10608 10611 10615 10618 10622 10625 10629 10632 10637 10642 10646 10650 10654 10661 10665 10663 10667 10672 10672 10674 10675 10679 10682 10686 10691 10693 10696 10700 10703 10707 10711 10715 10719 10723 10729 10734 10737 10739 10742 10747 10745 10746 10752 10756 10761 10768 10778 10781 10781 10783 10786 10785 10779 10780 10788 10788 10788 10793 10795 10803 10814 10816 10810 10808 10813 10816 10816 10818 10819 10820
10555 10556 10558 10559 10560 10561 10563 10566 10568 10571 10574 10577 10581 10584 10587 10591 10594 10598 10601 10604 10607 10610 10615 10619 10622 10626 10630 10635 10640 10644 10649 10656 10658 10655 10659 10666 10668 10669 10670 10674 10678 10682 10686 10688 10691 10694 10699 10703 10706 10709 10713 10718 10722 10727 10731 10733 10738 10739 10739 10744 10748 10752 10757 10764 10773 10778 10777 10777 10778 10776 10773 10777 10782 10781 10780 10784 10792 10800 10808 10810 10806 10802 10806 10811 10814 10816 10815 10816
10545 10547 10549 10551 10552 10553 10555 10558 10561 10564 10566 10569 10573 10576 10579 10582 10586 10589 10593 10597 10599 10603 10608 10612 10616 10619 10624 10630 10634 10640 10645 10648 10649 10647 10653 10660 10663 10664 10666 10669 10673 10677 10680 10683 10686 10690 10694 10697 10700 10703 10707 10712 10715 10720 10725 10729 10733 10732 10734 10740 10744 10749 10751 10759 10769 10775 10774 10769 10770 10770 10769 10773 10774 10773 10775 10781 10791 10797 10802 10805 10801 10797 10802 10809 10812 10812 10812 10812
10535 10537 10539 10541 10543 10545 10547 10550 10553 10556 10558 10561 10565 10567 10570 10573 10577 10581 10586 10589 10592 10597 10601 10605 10610 10614 10619 10624 10629 10636 10636 10636 10642 10644 10649 10655 10658 10660 10661 10664 10668 10672 10675 10678 10681 10685 10688 10691 10694 10697 10701 10706 10710 10716 10721 10725 10727 10725 10728 10735 10741 10745 10746 10754 10764 10771 10770 10760 10762 10767 10763 10766 10767 10768 10774 10780 10788 10793 10796 10799 10796 10795 10799 10806 10809 10807 10808 10810
10525 10527 10529 10531 10533 10536 10539 10542 10545 10548 10551 10554 10557 10559 10562 10564 10569 10573 10578 10582 10585 10590 10595 10599 10603 10608 10613 10618 10625 10629 10623 10628 10641 10643 10643 10648 10651 10654 10655 10658 10662 10666 10670 10673 10676 10679 10682 10685 10689 10692 10697 10702 10707 10711 10716 10719 10720 10718 10723 10731 10737 10740 10741 10749 10758 10767 10764 10752 10755 10761 10757 10759 10762 10766 10772 10775 10783 10786 10788 10790 10791 10792 10795 10801 10803 10803 10805 10807
10514 10517 10519 10521 10523 10526 10529 10533 10536 10539 10543 10546 10549 10551 10554 10557 10560 10565 10570 10574 10578 10583 10588 10592 10596 10602 10608 10613 10620 10618 10614 10626 10638 10638 10637 10641 10644 10648 10650 10652 10657 10661 10665 10668 10671 10673 10676 10680 10684 10688 10693 10697 10701 10704 10710 10712 10713 10714 10719 10726 10730 10735 10738 10743 10753 10761 10756 10745 10749 10755 10752 10753 10758 10763 10767 10769 10775 10778 10779 10783 10786 10790 10793 10796 10798 10800 10802 10802
10503 10506 10508 10510 10513 10516 10519 10523 10527 10530 10534 10537 10541 10543 10546 10550 10553 10557 10561 10566 10571 10576 10581 10585 10591 10597 10602 10610 10612 10607 10609 10623 10633 10634 10633 10633 10636 10642 10644 10647 10651 10656 10660 10662 10665 10668 10672 10676 10679 10684 10687 10691 10695 10699 10705 10706 10708 10711 10714 10719 10723 10730 10735 10736 10746 10753 10746 10740 10745 10748 10747 10751 10755 10757 10760 10763 10769 10772 10772 10775 10781 10788 10792 10791 10792 10795 10796 10797
10490 10494 10497 10499 10503 10506 10509 10513 10517 10521 10525 10529 10532 10535 10539 10542 10546 10549 10553 10559 10564 10569 10574 10579 10585 10590 10597 10605 10601 10597 10606 10619 10628 10630 10624 10623 10629 10635 10638 10641 10644 10649 10654 10656 10659 10663 10667 10671 10675 10678 10681 10687 10691 10695 10698 10699 10703 10707 10708 10714 10718 10724 10730 10732 10740 10744 10738 10737 10741 10740 10742 10749 10749 10746 10754 10761 10765 10765 10762 10766 10776 10786 10789 10787 10788 10790 10792 10792
10476 10480 10485 10488 10492 10496 10499 10503 10507 10511 10515 10520 10523 10527 10531 10535 10539 10542 10545 10551 10556 10562 10568 10573 10579 10584 10592 10596 10589 10592 10604 10613 10622 10623 10616 10617 10624 10630 10633 10635 10638 10643 10648 10651 10654 10658 10662 10667 10670 10673 10678 10683 10685 10688 10692 10695 10700 10703 10705 10708 10712 10719 10724 10727 10733 10734 10731 10733 10736 10734 10738 10746 10741 10739 10751 10759 10759 10753 10752 10760 10771 10782 10786 10784 10785 10786 10787 10788
10461 10466 10472 10476 10480 10485 10489 10493 10497 10501 10505 10510 10514 10519 10523 10527 10532 10534 10538 10543 10549 10556 10560 10565 10571 10577 10586 10586 10582 10590 10600 10607 10617 10615 10609 10611 10619 10624 10627 10630 10633 10638 10642 10645 10649 10653 10658 10662 10665 10669 10674 10676 10678 10685 10690 10692 10694 10697 10701 10703 10706 10713 10717 10721 10725 10725 10725 10728 10730 10729 10734 10740 10735 10735 10747 10753 10749 10744 10746 10756 10767 10777 10782 10782 10783 10782 10782 10783
10447 10452 10458 10463 10468 10473 10478 10482 10487 10491 10495 10500 10505 10511 10515 10519 10523 10527 10531 10536 10542 10548 10552 10559 10564 10572 10581 10577 10575 10586 10596 10604 10609 10605 10602 10606 10613 10618 10621 10625 10629 10632 10637 10640 10644 10649 10653 10656 10660 10665 10668 10669 10676 10684 10686 10686 10689 10693 10697 10697 10701 10707 10710 10714 10718 10717 10719 10724 10726 10725 10728 10730 10727 10732 10742 10744 10741 10739 10743 10752 10761 10773 10777 10778 10780 10778 10778 10778
10432 10438 10444 10449 10455 10461 10467 10471 10476 10481 10485 10490 10496 10501 10506 10510 10515 10519 10524 10529 10535 10540 10545 10552 10558 10567 10572 10566 10570 10583 10591 10595 10595 10594 10596 10601 10607 10612 10616 10621 10624 10627 10631 10635 10640 10643 10647 10651 10655 10659 10661 10666 10675 10680 10680 10682 10686 10688 10690 10691 10694 10700 10703 10708 10711 10709 10713 10720 10720 10716 10717 10720 10722 10731 10737 10734 10731 10734 10742 10749 10758 10768 10773 10774 10775 10774 10773 10772
10417 10424 10429 10435 10442 10448 10454 10460 10465 10470 10475 10481 10487 10492 10497 10502 10506 10511 10516 10522 10527 10533 10539 10546 10553 10559 10560 10559 10564 10573 10578 10581 10581 10585 10591 10596 10601 10606 10611 10615 10618 10622 10626 10631 10636 10639 10643 10647 10649 10652 10657 10665 10673 10675 10675 10676 10679 10680 10681 10684 10688 10693 10696 10701 10705 10703 10707 10716 10712 10706 10709 10715 10722 10729 10729 10723 10722 10731 10741 10748 10756 10763 10767 10769 10770 10769 10767 10766
10400 10407 10414 10421 10427 10434 10442 10448 10454 10460 10465 10472 10478 10483 10488 10492 10496 10502 10508 10515 10521 10527 10532 10539 10544 10547 10549 10551 10555 10561 10570 10574 10576 10582 10588 10592 10596 10600 10605 10610 10613 10617 10621 10627 10632 10635 10638 10641 10644 10650 10655 10662 10666 10666 10666 10667 10670 10674 10675 10679 10684 10687 10689 10694 10701 10698 10701 10709 10704 10699 10704 10709 10715 10719 10718 10718 10720 10729 10741 10747 10752 10757 10760 10763 10763 10762 10760 10760
10383 10391 10400 10407 10413 10420 10429 10436 10442 10449 10456 10463 10469 10474 10477 10481 10486 10493 10502 10510 10516 10520 10525 10532 10536 10538 10543 10546 10548 10556 10565 10569 10572 10579 10585 10587 10590 10595 10600 10604 10608 10612 10617 10623 10627 10629 10632 10636 10643 10648 10650 10654 10657 10656 10657 10659 10664 10669 10671 10676 10680 10682 10682 10688 10697 10696 10695 10701 10697 10692 10696 10701 10706 10710 10716 10723 10724 10728 10738 10743 10746 10750 10753 10755 10755 10754 10753 10754
10367 10375 10384 10392 10400 10407 10415 10424 10431 10438 10447 10454 10460 10463 10465 10471 10479 10488 10497 10503 10509 10514 10521 10528 10531 10533 10538 10541 10545 10552 10559 10564 10569 10575 10579 10580 10584 10591 10596 10599 10603 10609 10614 10618 10620 10623 10628 10635 10640 10642 10643 10646 10649 10649 10651 10654 10659 10664 10668 10672 10675 10677 10678 10682 10692 10694 10689 10690 10688 10684 10688 10695 10701 10708 10718 10726 10725 10725 10730 10735 10738 10742 10746 10747 10747 10746 10745 10748
10351 10360 10369 10378 10387 10394 10403 10412 10421 10429 10437 10444 10449 10451 10455 10463 10472 10481 10489 10496 10502 10508 10514 10520 10524 10525 10528 10535 10540 10545 10552 10559 10564 10569 10573 10575 10581 10588 10592 10594 10599 10604 10607 10610 10615 10619 10626 10632 10634 10635 10636 10639 10642 10643 10645 10649 10654 10659 10664 10669 10671 10672 10673 10676 10686 10691 10684 10681 10678 10678 10685 10694 10701 10708 10716 10720 10721 10721 10721 10724 10730 10734 10738 10740 10740 10740 10741 10744
10336 10345 10354 10364 10373 10382 10392 10401 10411 10420 10427 10435 10438 10440 10447 10457 10466 10475 10483 10490 10495 10499 10505 10511 10515 10515 10519 10529 10534 10538 10545 10552 10558 10563 10567 10572 10577 10582 10585 10588 10593 10597 10601 10606 10611 10616 10623 10627 10626 10626 10629 10632 10636 10638 10639 10644 10650 10655 10660 10664 10666 10667 10667 10670 10678 10682 10679 10674 10670 10674 10685 10693 10699 10703 10708 10711 10713 10715 10715 10717 10722 10728 10731 10733 10734 10735 10737 10740
10322 10331 10340 10349 10360 10371 10381 10390 10401 10409 10416 10424 10427 10430 10441 10451 10459 10468 10476 10482 10487 10491 10496 10504 10508 10507 10512 10522 10527 10531 10537 10544 10551 10555 10560 10566 10569 10574 10578 10581 10585 10591 10596 10601 10605 10611 10617 10618 10617 10619 10623 10626 10630 10632 10634 10639 10646 10650 10654 10658 10661 10660 10659 10661 10665 10671 10675 10668 10665 10675 10685 10689 10695 10697 10701 10704 10706 10709 10713 10714 10717 10721 10725 10727 10728 10730 10732 10734
10309 10318 10326 10337 10348 10360 10371 10379 10390 10399 10406 10412 10415 10423 10436 10444 10451 10459 10467 10473 10478 10483 10489 10498 10504 10500 10503 10517 10523 10526 10531 10538 10544 10546 10551 10557 10559 10565 10571 10574 10580 10586 10591 10595 10599 10605 10610 10611 10611 10615 10619 10622 10626 10628 10630 10636 10642 10645 10649 10654 10655 10651 10650 10651 10653 10663 10672 10665 10666 10678 10681 10683 10689 10692 10695 10698 10699 10703 10708 10711 10713 10715 10718 10720 10721 10722 10724 10726
10296 10305 10314 10326 10337 10350 10361 10369 10378 10388 10393 10399 10407 10419 10429 10435 10444 10453 10460 10466 10472 10477 10483 10493 10497 10490 10497 10514 10520 10521 10526 10531 10535 10537 10544 10550 10552 10558 10564 10568 10575 10581 10585 10588 10593 10600 10604 10606 10607 10612 10616 10618 10622 10625 10626 10632 10638 10642 10645 10648 10648 10644 10643 10643 10644 10658 10668 10663 10668 10676 10674 10677 10682 10685 10688 10691 10692 10697 10701 10705 10707 10709 10711 10713 10714 10715 10717 10719
10286 10293 10304 10315 10326 10340 10352 10359 10367 10376 10383 10391 10401 10411 10420 10429 10439 10445 10451 10460 10465 10469 10476 10486 10487 10483 10494 10508 10511 10514 10519 10521 10524 10531 10540 10545 10546 10552 10559 10564 10570 10575 10578 10581 10588 10596 10599 10601 10604 10608 10611 10614 10620 10622 10622 10627 10633 10638 10639 10640 10641 10639 10639 10636 10636 10652 10661 10657 10665 10672 10669 10672 10677 10679 10681 10684 10689 10693 10696 10699 10701 10702 10704 10706 10708 10709 10711 10713
10277 10285 10295 10305 10317 10331 10342 10349 10357 10366 10375 10385 10394 10405 10415 10423 10431 10435 10443 10452 10455 10460 10471 10478 10476 10476 10488 10500 10504 10508 10508 10510 10517 10526 10534 10538 10539 10546 10554 10560 10565 10569 10572 10577 10586 10592 10593 10597 10600 10603 10607 10612 10617 10617 10618 10623 10629 10634 10632 10632 10635 10635 10634 10628 10627 10646 10654 10651 10661 10670 10668 10669 10672 10674 10675 10680 10687 10690 10692 10694 10694 10695 10696 10699 10702 10704 10706 10708
10270 10278 10287 10298 10310 10322 10332 10338 10347 10357 10368 10378 10389 10399 10408 10415 10421 10427 10437 10445 10449 10457 10466 10468 10468 10472 10484 10495 10498 10500 10501 10505 10512 10519 10526 10529 10532 10539 10548 10554 10558 10561 10567 10573 10580 10584 10587 10592 10595 10598 10603 10608 10611 10611 10614 10618 10623 10627 10624 10625 10630 10630 10627 10619 10622 10641 10647 10646 10658 10666 10667 10666 10666 10670 10673 10677 10682 10683 10686 10686 10685 10687 10689 10692 10697 10699 10702 10703
10265 10272 10280 10291 10303 10314 10322 10329 10338 10349 10360 10373 10383 10391 10400 10408 10415 10423 10432 10438 10443 10451 10457 10461 10464 10469 10478 10488 10492 10494 10497 10501 10504 10511 10520 10522 10524 10532 10540 10545 10549 10554 10561 10568 10574 10579 10582 10585 10590 10595 10599 10603 10604 10607 10610 10613 10617 10620 10618 10620 10624 10624 10620 10616 10622 10636 10641 10646 10655 10658 10659 10660 10659 10665 10673 10674 10675 10678 10679 10679 10680 10683 10686 10688 10691 10694 10696 10697
10261 10268 10276 10286 10297 10307 10315 10322 10330 10341 10355 10367 10376 10385 10394 10401 10409 10419 10425 10427 10435 10445 10452 10456 10458 10462 10472 10481 10484 10486 10489 10493 10496 10505 10515 10517 10519 10527 10533 10539 10545 10549 10556 10563 10569 10573 10576 10581 10587 10591 10595 10598 10600 10602 10605 10608 10612 10614 10614 10617 10619 10617 10617 10618 10623 10630 10637 10646 10649 10647 10651 10652 10651 10660 10671 10673 10673 10674 10672 10673 10676 10679 10681 10683 10685 10688 10689 10690
10258 10264 10272 10279 10289 10298 10306 10314 10324 10338 10351 10361 10370 10379 10388 10395 10406 10413 10413 10418 10433 10443 10445 10446 10450 10456 10464 10470 10474 10477 10481 10486 10491 10499 10509 10511 10515 10524 10531 10538 10544 10547 10554 10561 10564 10567 10572 10579 10583 10586 10591 10593 10594 10599 10601 10604 10610 10610 10610 10613 10615 10613 10615 10619 10622 10627 10635 10640 10641 10640 10640 10641 10644 10654 10667 10671 10670 10669 10665 10666 10671 10674 10676 10678 10679 10681 10683 10683
10254 10259 10265 10272 10280 10289 10298 10309 10321 10334 10345 10355 10364 10373 10383 10393 10400 10399 10400 10414 10429 10432 10432 10436 10442 10448 10455 10463 10468 10469 10474 10481 10485 10492 10502 10506 10509 10517 10524 10530 10537 10542 10548 10554 10556 10561 10569 10574 10578 10584 10589 10588 10589 10595 10598 10601 10606 10605 10604 10609 10612 10610 10613 10617 10619 10624 10629 10629 10633 10633 10629 10633 10641 10649 10662 10669 10666 10664 10662 10662 10666 10669 10671 10672 10673 10675 10676 10677
10249 10254 10260 10267 10275 10284 10294 10306 10318 10330 10341 10350 10359 10369 10379 10385 10385 10385 10394 10408 10416 10418 10423 10429 10434 10440 10450 10458 10459 10461 10470 10477 10480 10486 10496 10501 10503 10510 10518 10525 10532 10537 10540 10544 10550 10557 10564 10570 10576 10581 10582 10582 10585 10591 10594 10595 10598 10600 10599 10603 10607 10608 10611 10613 10613 10618 10620 10620 10625 10624 10621 10631 10641 10646 10656 10662 10661 10661 10660 10659 10660 10663 10665 10666 10667 10669 10669 10671
10247 10251 10257 10265 10273 10282 10292 10304 10316 10327 10337 10346 10356 10366 10371 10371 10371 10378 10389 10399 10406 10412 10418 10423 10428 10435 10444 10449 10450 10456 10465 10469 10472 10480 10490 10498 10500 10505 10515 10522 10527 10531 10534 10542 10548 10553 10560 10566 10571 10572 10572 10577 10581 10585 10588 10588 10591 10595 10593 10595 10605 10608 10607 10606 10606 10610 10612 10613 10616 10616 10619 10629 10637 10642 10648 10652 10655 10658 10656 10655 10655 10656 10658 10660 10662 10663 10664 10666
10246 10251 10256 10264 10272 10281 10291 10303 10314 10324 10334 10343 10351 10356 10355 10356 10364 10375 10384 10393 10403 10411 10416 10422 10427 10432 10439 10444 10446 10453 10459 10462 10466 10475 10485 10494 10496 10499 10508 10515 10521 10526 10532 10539 10543 10547 10555 10559 10562 10565 10567 10573 10578 10580 10582 10582 10585 10589 10588 10594 10603 10601 10597 10599 10601 10603 10606 10608 10609 10611 10617 10625 10630 10636 10641 10645 10650 10650 10649 10650 10649 10649 10652 10655 10657 10659 10661 10662
10247 10252 10257 10264 10272 10281 10291 10302 10312 10322 10330 10337 10341 10344 10348 10357 10368 10378 10385 10393 10402 10408 10414 10420 10426 10431 10437 10441 10444 10449 10454 10457 10461 10471 10482 10489 10491 10495 10504 10510 10516 10521 10526 10531 10535 10540 10548 10550 10553 10560 10563 10568 10574 10574 10575 10577 10580 10587 10589 10591 10592 10589 10590 10596 10598 10598 10602 10604 10605 10608 10614 10619 10623 10628 10635 10640 10642 10641 10642 10644 10644 10645 10647 10650 10653 10655 10657 10658
10247 10252 10258 10265 10273 10282 10291 10300 10310 10319 10326 10332 10337 10343 10352 10362 10370 10377 10384 10392 10399 10405 10411 10416 10423 10428 10431 10435 10439 10442 10446 10451 10457 10468 10478 10484 10487 10492 10499 10504 10511 10517 10520 10524 10528 10532 10539 10542 10546 10554 10558 10561 10565 10567 10571 10575 10578 10584 10585 10582 10581 10584 10589 10594 10595 10597 10599 10599 10601 10605 10608 10613 10617 10622 10630 10634 10634 10635 10638 10638 10639 10641 10643 10646 10649 10650 10651 10652
10248 10253 10258 10266 10273 10281 10290 10299 10308 10316 10323 10330 10337 10344 10352 10359 10367 10374 10381 10387 10394 10400 10406 10413 10419 10423 10426 10430 10432 10434 10439 10446 10454 10463 10471 10478 10483 10486 10492 10498 10505 10511 10514 10517 10522 10527 10533 10538 10542 10548 10552 10554 10559 10565 10571 10573 10573 10576 10578 10576 10578 10583 10586 10588 10591 10594 10596 10595 10596 10599 10602 10606 10612 10618 10623 10626 10627 10630 10632 10633 10634 10634 10636 10640 10642 10643 10644 10645
10249 10254 10260 10267 10274 10282 10291 10299 10307 10314 10321 10328 10335 10343 10350 10359 10366 10373 10378 10384 10389 10394 10400 10406 10412 10417 10420 10421 10424 10428 10434 10441 10448 10455 10464 10471 10475 10479 10486 10494 10500 10506 10509 10511 10516 10522 10528 10533 10536 10541 10545 10550 10558 10566 10568 10566 10566 10569 10572 10572 10575 10579 10580 10582 10586 10589 10592 10591 10590 10593 10597 10601 10606 10611 10615 10619 10622 10624 10626 10627 10628 10628 10630 10633 10635 10637 10639 10640
10252 10257 10262 10268 10276 10284 10292 10300 10307 10314 10321 10328 10335 10342 10350 10357 10363 10369 10374 10380 10384 10388 10393 10399 10405 10411 10412 10412 10417 10423 10426 10433 10442 10448 10456 10463 10468 10474 10483 10492 10497 10499 10501 10505 10510 10517 10523 10527 10529 10533 10540 10549 10557 10561 10560 10559 10562 10565 10565 10566 10570 10574 10575 10577 10581 10585 10586 10585 10585 10588 10591 10595 10599 10603 10608 10614 10617 10619 10620 10621 10620 10621 10625 10628 10630 10632 10634 10634
10256 10261 10266 10272 10278 10285 10293 10301 10308 10315 10323 10329 10336 10343 10349 10355 10361 10366 10371 10375 10378 10383 10388 10393 10398 10401 10402 10404 10411 10417 10419 10427 10436 10442 10451 10459 10465 10472 10479 10485 10490 10490 10494 10501 10507 10512 10517 10519 10521 10527 10537 10546 10549 10553 10555 10555 10557 10559 10559 10561 10567 10572 10573 10575 10578 10579 10579 10577 10577 10580 10585 10590 10593 10597 10604 10611 10613 10614 10614 10612 10612 10615 10620 10623 10625 10627 10628 10628
10261 10266 10272 10277 10283 10290 10296 10303 10310 10317 10323 10330 10336 10342 10348 10354 10359 10364 10368 10370 10373 10378 10382 10385 10389 10393 10395 10398 10404 10409 10414 10422 10430 10438 10447 10454 10460 10467 10472 10478 10482 10484 10490 10497 10501 10505 10510 10513 10516 10524 10533 10538 10540 10545 10550 10550 10551 10554 10556 10559 10565 10569 10570 10572 10572 10570 10569 10568 10568 10572 10580 10586 10589 10594 10602 10607 10606 10606 10605 10605 10607 10610 10614 10618 10619 10621 10622 10622
10268 10272 10277 10282 10288 10294 10300 10307 10314 10320 10326 10332 10337 10343 10347 10351 10356 10360 10363 10366 10370 10373 10376 10379 10384 10388 10390 10393 10399 10404 10409 10417 10426 10434 10442 10449 10456 10462 10466 10472 10477 10480 10487 10493 10496 10501 10507 10509 10512 10519 10526 10530 10535 10543 10548 10549 10550 10551 10553 10555 10560 10563 10563 10565 10565 10563 10562 10562 10563 10568 10575 10582 10587 10592 10597 10599 10598 10598 10599 10601 10603 10606 10609 10613 10614 10614 10616 10616
10274 10278 10283 10287 10292 10298 10304 10310 10317 10323 10328 10333 10337 10342 10346 10349 10352 10356 10359 10363 10366 10369 10372 10376 10381 10385 10388 10393 10400 10405 10410 10417 10425 10432 10439 10445 10451 10456 10461 10467 10473 10478 10484 10487 10489 10495 10501 10503 10507 10514 10522 10528 10534 10540 10543 10543 10542 10543 10546 10549 10553 10556 10557 10559 10560 10557 10557 10558 10558 10564 10572 10580 10585 10588 10590 10592 10592 10593 10595 10597 10599 10601 10604 10606 10607 10608 10609 10609
10279 10284 10288 10292 10297 10302 10307 10312 10317 10323 10328 10332 10336 10340 10343 10347 10350 10353 10356 10360 10362 10365 10369 10374 10379 10382 10386 10391 10398 10403 10409 10415 10423 10430 10436 10441 10446 10452 10460 10465 10469 10473 10477 10478 10483 10491 10496 10500 10505 10511 10518 10523 10526 10528 10530 10532 10534 10537 10541 10543 10545 10548 10549 10551 10552 10550 10551 10553 10555 10561 10571 10577 10581 10583 10584 10585 10586 10588 10589 10591 10594 10596 10598 10600 10600 10601 10602 10603
10283 10288 10293 10297 10301 10305 10310 10314 10318 10323 10328 10332 10336 10339 10341 10344 10348 10351 10354 10357 10360 10363 10367 10371 10375 10380 10383 10387 10393 10399 10405 10412 10419 10426 10432 10438 10444 10452 10458 10461 10464 10467 10470 10474 10481 10488 10493 10499 10504 10508 10511 10515 10517 10519 10522 10528 10532 10534 10536 10536 10538 10541 10543 10543 10544 10543 10546 10551 10555 10561 10568 10571 10573 10575 10577 10578 10580 10582 10584 10586 10588 10590 10592 10593 10594 10595 10596 10597
10287 10291 10296 10300 10304 10308 10312 10316 10320 10324 10328 10332 10335 10337 10339 10342 10345 10349 10352 10355 10358 10361 10365 10368 10372 10377 10382 10386 10390 10395 10400 10408 10415 10423 10431 10438 10445 10450 10454 10457 10460 10463 10467 10473 10481 10486 10490 10496 10500 10502 10504 10507 10511 10513 10517 10523 10528 10528 10529 10530 10532 10535 10537 10536 10536 10539 10545 10551 10555 10559 10563 10565 10566 10568 10570 10572 10574 10576 10578 10580 10582 10584 10585 10586 10588 10589 10589 10589
10292 10295 10298 10302 10306 10309 10313 10318 10321 10325 10328 10330 10333 10336 10338 10341 10344 10347 10351 10354 10357 10360 10364 10368 10371 10376 10381 10385 10390 10395 10400 10407 10413 10421 10428 10435 10441 10446 10450 10454 10457 10459 10464 10472 10477 10481 10485 10490 10493 10495 10496 10500 10505 10508 10511 10517 10520 10521 10522 10524 10526 10529 10532 10532 10533 10539 10545 10550 10553 10555 10557 10559 10560 10562 10564 10565 10567 10569 10571 10574 10576 10578 10579 10580 10581 10581 10581 10583
10296 10299 10302 10305 10309 10312 10315 10318 10322 10325 10328 10331 10333 10336 10339 10342 10345 10348 10351 10354 10357 10360 10364 10369 10374 10378 10382 10387 10392 10397 10403 10408 10414 10420 10425 10431 10437 10441 10445 10450 10453 10456 10461 10467 10472 10476 10479 10482 10486 10488 10491 10496 10500 10503 10506 10509 10512 10515 10518 10520 10522 10525 10528 10529 10533 10539 10543 10544 10547 10550 10552 10553 10555 10556 10557 10559 10560 10562 10564 10567 10570 10572 10573 10574 10574 10574 10575 10577
10300 10302 10304 10307 10311 10314 10317 10320 10323 10325 10328 10331 10334 10336 10340 10343 10346 10349 10352 10355 10358 10361 10366 10370 10375 10379 10382 10388 10393 10397 10402 10408 10412 10417 10423 10428 10433 10436 10441 10445 10448 10451 10456 10460 10467 10472 10473 10474 10479 10484 10488 10491 10494 10498 10500 10502 10505 10509 10512 10514 10516 10519 10524 10527 10531 10536 10537 10537 10539 10543 10544 10545 10547 10549 10550 10552 10554 10556 10558 10561 10564 10565 10567 10567 10567 10567 10569 10570
10303 10305 10308 10310 10313 10316 10319 10321 10324 10326 10329 10331 10334 10337 10340 10343 10346 10350 10354 10357 10360 10363 10367 10370 10373 10377 10383 10388 10392 10397 10401 10406 10410 10414 10419 10423 10427 10432 10437 10440 10442 10446 10450 10455 10462 10466 10466 10470 10476 10480 10481 10483 10488 10493 10494 10495 10498 10502 10506 10510 10513 10516 10520 10524 10526 10528 10529 10530 10532 10535 10536 10538 10540 10542 10544 10546 10548 10550 10552 10554 10557 10558 10560 10561 10561 10562 10563 10563